Skip Page Navigation
NASA JPL Caltech
NASA Logo - Jet Propulsion Laboratory + View the NASA Portal
+ Center for Near-Earth Object Studies
JPL Home Earth Solar System Stars & Galaxies Technology
JPL Solar System Dynamics
BODIES ORBITS EPHEMERIDES TOOLS PHYSICAL DATA DISCOVERY FAQ SITE MAP
IMPORTANT: The SSD Announcement email list is now available. Major changes are coming in the near future, including possible hostname and/or URL changes. To be notified of such changes, subscribe to this email list.

Please visit this page for more details.


JPL Small-Body Database Browser
Search: [ help ]  
605 Juvisia (A906 QJ)
Classification: Main-belt Asteroid          SPK-ID: 2000605
Ephemeris | Orbit Diagram | Orbital Elements | Mission Design | Physical Parameters | Discovery Circumstances | Close-Approach Data ]

[ show orbit diagram ]
Orbital Elements at Epoch 2459000.5 (2020-May-31.0) TDB
Reference: JPL 33 (heliocentric ecliptic J2000)
 Element Value Uncertainty (1-sigma)   Units 
e .1364579981783655 4.9383e-08  
a 3.000432494514297 1.5313e-08 au
q 2.590999482643557 1.4827e-07 au
i 19.63790625975083 5.8287e-06 deg
node 342.6545698574058 1.1737e-05 deg
peri 14.95962506904758 2.0279e-05 deg
M 358.455395653412 1.9443e-05 deg
tp 2459008.644960247714
(2020-Jun-08.14496025)
0.00010256 TDB
period 1898.340954209012
5.20
1.4532e-05
3.979e-08
d
yr
n .1896392738100108 1.4517e-09 deg/d
Q 3.409865506385038 1.7402e-08 au
  Orbit Determination Parameters
   # obs. used (total)      3199  
   data-arc span      41351 days (113.21 yr)  
   first obs. used      1906-08-28  
   last obs. used      2019-11-14  
   planetary ephem.      DE431  
   SB-pert. ephem.      SB431-N16  
   condition code      0  
   norm. resid. RMS      .36428  
   source      ORB  
   producer      Otto Matic  
   solution date      2020-Jan-28 17:34:13  

Additional Information
 Earth MOID = 1.58941 au 
 Jupiter MOID = 2.03316 au 
 T_jup = 3.151 
[ show covariance matrix ]

Ephemeris | Orbit Diagram | Orbital Elements | Mission Design | Physical Parameters | Discovery Circumstances | Close-Approach Data ]

Physical Parameter Table
Parameter Symbol Value Units Sigma Reference Notes
absolute magnitude H 10.0   n/a MPO263348  
diameter diameter 69.86 km 4.5 IRAS-A-FPA-3-RDR-IMPS-V6.0 IRAS observations used: 20
rotation period rot_per 15.93 h n/a LCDB (Rev. 2019-August); Warner et al., 2009 Result based on less than full coverage, so that the period may be wrong by 30 percent or so.
Published Reference List:
[Warner, B.D. (2000) Minor Planet Bull. 27, 4-6.]
[Menke, J. (2005) Minor Planet Bull. 32, 85-88.]
[Warner, B.D. (2011) Minor Planet Bull. 38, 52-54.]
geometric albedo albedo 0.0397   0.006 IRAS-A-FPA-3-RDR-IMPS-V6.0 IRAS observations used: 20

605 Juvisia (A906 QJ)          Discovered 1906-Aug-27 by Wolf, M. at Heidelberg
Reference: DISCOVERY.DBLast Updated: 2003-08-29

[ show close-approach data ]
Alternate Designations
 A906 QJ = 1931 PD = 1931 RY = 1939 BJ = 1952 SE1 
Ephemeris | Orbit Diagram | Orbital Elements | Mission Design | Physical Parameters | Discovery Circumstances | Close-Approach Data ]
ABOUT SSD CREDITS/AWARDS PRIVACY/COPYRIGHT GLOSSARY LINKS
FirstGov 2020-Feb-18 02:06 UT
(server date/time)  
NASA Home Page
Site Manager:   Ryan S. Park
Webmaster  Alan B. Chamberlin